BHS375 MYSM-MYNN

Flight info

Callsign BHS375
Flight time 0h 50m
Altitude 16000
Route SEAAN
Aircraft AT76/M-SDFGIRY/S

Departure

Time 2026-05-04 22:58
Airport San Salvador International Airport (MYSM)

Arrival

Time 2026-05-04 23:49
Airport Lynden Pindling International Airport (MYNN)
Time Latitude Longitude Altitude Speed Heading
2026-05-04 22:55 24.06579 -74.53229 30 ft 0 kts 92°
2026-05-04 22:56 24.06578 -74.53229 30 ft 0 kts 92°
2026-05-04 22:56 24.06578 -74.53228 30 ft 1 kts 99°
2026-05-04 22:56 24.06564 -74.53240 29 ft 6 kts 263°
2026-05-04 22:57 24.06520 -74.53285 29 ft 12 kts 189°
2026-05-04 22:57 24.06426 -74.53307 28 ft 14 kts 219°
2026-05-04 22:57 24.06415 -74.53430 29 ft 18 kts 279°
2026-05-04 22:57 24.06454 -74.53548 29 ft 11 kts 274°
2026-05-04 22:58 24.06424 -74.53546 30 ft 9 kts 95°
2026-05-04 22:58 24.06398 -74.53258 28 ft 71 kts 94°
2026-05-04 22:58 24.06338 -74.52520 48 ft 118 kts 94°
2026-05-04 22:58 24.06276 -74.51671 634 ft 105 kts 93°
2026-05-04 22:59 24.06216 -74.50784 826 ft 132 kts 93°
2026-05-04 22:59 24.06153 -74.49711 1185 ft 141 kts 85°
2026-05-04 22:59 24.06638 -74.48785 1555 ft 146 kts 37°
2026-05-04 22:59 24.07620 -74.48551 1908 ft 149 kts 348°
2026-05-04 23:00 24.08489 -74.49161 2287 ft 149 kts 303°
2026-05-04 23:00 24.08948 -74.50187 2671 ft 149 kts 292°
2026-05-04 23:00 24.09364 -74.51284 2952 ft 158 kts 290°
2026-05-04 23:00 24.09784 -74.52438 3241 ft 166 kts 289°
2026-05-04 23:01 24.10201 -74.53613 3531 ft 173 kts 289°
2026-05-04 23:01 24.10648 -74.54878 3863 ft 177 kts 289°
2026-05-04 23:01 24.11097 -74.56151 4069 ft 187 kts 290°
2026-05-04 23:01 24.11597 -74.57564 4046 ft 206 kts 290°
2026-05-04 23:02 24.12136 -74.59073 4089 ft 216 kts 290°
2026-05-04 23:02 24.12677 -74.60591 4366 ft 214 kts 290°
2026-05-04 23:02 24.13217 -74.62109 4715 ft 208 kts 290°
2026-05-04 23:02 24.13743 -74.63593 5028 ft 206 kts 290°
2026-05-04 23:03 24.14270 -74.65080 5303 ft 206 kts 290°
2026-05-04 23:03 24.14795 -74.66563 5543 ft 207 kts 290°
2026-05-04 23:03 24.15322 -74.68051 5786 ft 208 kts 290°
2026-05-04 23:03 24.15843 -74.69519 6028 ft 208 kts 290°
2026-05-04 23:04 24.16375 -74.71026 6271 ft 209 kts 290°
2026-05-04 23:04 24.16900 -74.72516 6502 ft 210 kts 289°
2026-05-04 23:04 24.17429 -74.74014 6729 ft 210 kts 290°
2026-05-04 23:04 24.17962 -74.75517 6964 ft 210 kts 290°
2026-05-04 23:05 24.18488 -74.77005 7193 ft 211 kts 289°
2026-05-04 23:05 24.19021 -74.78515 7413 ft 212 kts 289°
2026-05-04 23:05 24.19557 -74.80032 7629 ft 212 kts 289°
2026-05-04 23:05 24.20096 -74.81559 7841 ft 213 kts 290°
2026-05-04 23:06 24.20638 -74.83093 8052 ft 214 kts 290°
2026-05-04 23:06 24.21179 -74.84628 8261 ft 215 kts 290°
2026-05-04 23:06 24.21689 -74.86071 8466 ft 214 kts 289°
2026-05-04 23:06 24.22230 -74.87609 8678 ft 215 kts 289°
2026-05-04 23:07 24.22766 -74.89131 8876 ft 215 kts 289°
2026-05-04 23:07 24.23314 -74.90687 9073 ft 216 kts 289°
2026-05-04 23:07 24.23857 -74.92229 9263 ft 217 kts 289°
2026-05-04 23:07 24.24407 -74.93788 9465 ft 217 kts 289°
2026-05-04 23:08 24.24955 -74.95347 9659 ft 218 kts 289°
2026-05-04 23:08 24.25501 -74.96897 9851 ft 218 kts 289°
2026-05-04 23:08 24.26049 -74.98459 10040 ft 218 kts 289°
2026-05-04 23:08 24.26592 -75.00003 10221 ft 219 kts 289°
2026-05-04 23:09 24.27138 -75.01559 10412 ft 219 kts 289°
2026-05-04 23:09 24.27692 -75.03138 10606 ft 219 kts 289°
2026-05-04 23:09 24.28238 -75.04695 10779 ft 220 kts 289°
2026-05-04 23:09 24.28790 -75.06268 10953 ft 220 kts 288°
2026-05-04 23:10 24.29339 -75.07835 11127 ft 220 kts 288°
2026-05-04 23:10 24.29889 -75.09405 11291 ft 221 kts 288°
2026-05-04 23:10 24.30443 -75.10986 11462 ft 221 kts 288°
2026-05-04 23:10 24.30997 -75.12565 11629 ft 222 kts 288°
2026-05-04 23:12 24.33786 -75.20531 12423 ft 223 kts 288°
2026-05-04 23:12 24.34337 -75.22109 12575 ft 224 kts 288°
2026-05-04 23:12 24.34901 -75.23724 12726 ft 224 kts 288°
2026-05-04 23:12 24.35459 -75.25320 12870 ft 224 kts 288°
2026-05-04 23:13 24.36006 -75.26879 13383 ft 208 kts 288°
2026-05-04 23:13 24.36497 -75.28271 13989 ft 191 kts 287°
2026-05-04 23:13 24.36966 -75.29610 14413 ft 184 kts 287°
2026-05-04 23:13 24.37418 -75.30913 14693 ft 185 kts 287°
2026-05-04 23:14 24.37882 -75.32251 14918 ft 188 kts 287°
2026-05-04 23:14 24.38356 -75.33615 15144 ft 191 kts 287°
2026-05-04 23:14 24.38827 -75.34969 15389 ft 192 kts 287°
2026-05-04 23:14 24.39305 -75.36346 15645 ft 193 kts 287°
2026-05-04 23:15 24.39784 -75.37721 15909 ft 193 kts 287°
2026-05-04 23:15 24.40273 -75.39130 16027 ft 200 kts 287°
2026-05-04 23:15 24.40783 -75.40608 16013 ft 211 kts 287°
2026-05-04 23:15 24.41311 -75.42128 16011 ft 220 kts 288°
2026-05-04 23:16 24.41870 -75.43735 16007 ft 226 kts 288°
2026-05-04 23:16 24.42439 -75.45369 16002 ft 232 kts 288°
2026-05-04 23:16 24.43019 -75.47038 15998 ft 235 kts 288°
2026-05-04 23:16 24.43596 -75.48695 15987 ft 233 kts 288°
2026-05-04 23:17 24.44174 -75.50358 15984 ft 232 kts 288°
2026-05-04 23:17 24.44758 -75.52037 15986 ft 232 kts 288°
2026-05-04 23:17 24.45332 -75.53691 15985 ft 231 kts 288°
2026-05-04 23:17 24.45904 -75.55341 15985 ft 231 kts 288°
2026-05-04 23:18 24.46469 -75.56970 15986 ft 230 kts 288°
2026-05-04 23:18 24.47044 -75.58630 15985 ft 230 kts 288°
2026-05-04 23:18 24.47613 -75.60272 15985 ft 230 kts 288°
2026-05-04 23:18 24.48181 -75.61912 15986 ft 229 kts 288°
2026-05-04 23:19 24.48746 -75.63544 15985 ft 229 kts 288°
2026-05-04 23:19 24.49309 -75.65172 15986 ft 229 kts 287°
2026-05-04 23:19 24.49878 -75.66820 15994 ft 229 kts 287°
2026-05-04 23:19 24.50449 -75.68473 15993 ft 230 kts 287°
2026-05-04 23:20 24.51010 -75.70097 15993 ft 230 kts 287°
2026-05-04 23:20 24.51583 -75.71758 15994 ft 230 kts 287°
2026-05-04 23:20 24.52145 -75.73383 15993 ft 230 kts 287°
2026-05-04 23:20 24.52715 -75.75032 15992 ft 230 kts 287°
2026-05-04 23:21 24.53281 -75.76673 15992 ft 230 kts 287°
2026-05-04 23:21 24.53852 -75.78329 15992 ft 230 kts 287°
2026-05-04 23:21 24.54419 -75.79972 15992 ft 230 kts 287°
2026-05-04 23:21 24.54983 -75.81612 15992 ft 230 kts 287°
2026-05-04 23:22 24.55555 -75.83271 15992 ft 230 kts 287°
2026-05-04 23:22 24.56116 -75.84901 15991 ft 230 kts 287°
2026-05-04 23:22 24.56685 -75.86557 15990 ft 230 kts 287°
2026-05-04 23:22 24.57250 -75.88200 15989 ft 230 kts 287°
2026-05-04 23:23 24.57810 -75.89829 15988 ft 230 kts 287°
2026-05-04 23:23 24.58374 -75.91470 15987 ft 230 kts 287°
2026-05-04 23:23 24.58944 -75.93130 15986 ft 230 kts 287°
2026-05-04 23:23 24.59511 -75.94782 15984 ft 231 kts 287°
2026-05-04 23:24 24.60074 -75.96419 15983 ft 231 kts 287°
2026-05-04 23:24 24.60639 -75.98072 15982 ft 231 kts 287°
2026-05-04 23:24 24.61209 -75.99738 15980 ft 231 kts 287°
2026-05-04 23:24 24.61773 -76.01386 15982 ft 231 kts 287°
2026-05-04 23:25 24.62340 -76.03042 15978 ft 231 kts 287°
2026-05-04 23:25 24.62910 -76.04707 15975 ft 231 kts 287°
2026-05-04 23:25 24.63472 -76.06348 15974 ft 230 kts 287°
2026-05-04 23:25 24.64041 -76.08004 15981 ft 230 kts 287°
2026-05-04 23:26 24.64602 -76.09639 15981 ft 230 kts 287°
2026-05-04 23:26 24.65168 -76.11293 15980 ft 230 kts 287°
2026-05-04 23:26 24.65738 -76.12957 15981 ft 230 kts 287°
2026-05-04 23:26 24.66297 -76.14591 15980 ft 230 kts 287°
2026-05-04 23:27 24.66861 -76.16241 15980 ft 230 kts 287°
2026-05-04 23:27 24.67425 -76.17890 15980 ft 230 kts 287°
2026-05-04 23:27 24.67992 -76.19553 15980 ft 230 kts 287°
2026-05-04 23:27 24.68556 -76.21204 15980 ft 230 kts 287°
2026-05-04 23:28 24.69122 -76.22865 15981 ft 230 kts 287°
2026-05-04 23:28 24.69679 -76.24496 15980 ft 230 kts 287°
2026-05-04 23:28 24.70243 -76.26152 15979 ft 230 kts 287°
2026-05-04 23:28 24.70801 -76.27790 15979 ft 229 kts 287°
2026-05-04 23:29 24.71360 -76.29433 15979 ft 229 kts 287°
2026-05-04 23:29 24.71920 -76.31081 15979 ft 229 kts 287°
2026-05-04 23:29 24.72482 -76.32736 15979 ft 229 kts 287°
2026-05-04 23:29 24.73040 -76.34380 15979 ft 229 kts 287°
2026-05-04 23:30 24.73599 -76.36029 15979 ft 229 kts 287°
2026-05-04 23:30 24.74157 -76.37673 15979 ft 229 kts 287°
2026-05-04 23:30 24.74713 -76.39314 15978 ft 229 kts 287°
2026-05-04 23:30 24.75270 -76.40960 15978 ft 229 kts 287°
2026-05-04 23:31 24.75831 -76.42614 15887 ft 232 kts 287°
2026-05-04 23:31 24.76398 -76.44288 15728 ft 238 kts 287°
2026-05-04 23:31 24.76938 -76.45882 15577 ft 242 kts 287°
2026-05-04 23:31 24.77525 -76.47622 15411 ft 245 kts 287°
2026-05-04 23:32 24.78128 -76.49398 15242 ft 248 kts 287°
2026-05-04 23:32 24.78733 -76.51183 15071 ft 250 kts 287°
2026-05-04 23:32 24.79343 -76.52981 14898 ft 251 kts 287°
2026-05-04 23:32 24.79956 -76.54791 14719 ft 252 kts 288°
2026-05-04 23:33 24.80569 -76.56606 14481 ft 256 kts 288°
2026-05-04 23:33 24.81194 -76.58454 14234 ft 258 kts 288°
2026-05-04 23:33 24.81821 -76.60310 13986 ft 260 kts 288°
2026-05-04 23:33 24.82466 -76.62192 13735 ft 261 kts 288°
2026-05-04 23:34 24.83113 -76.64059 13484 ft 263 kts 288°
2026-05-04 23:34 24.83772 -76.65958 13235 ft 263 kts 288°
2026-05-04 23:34 24.84416 -76.67808 12997 ft 264 kts 288°
2026-05-04 23:34 24.85083 -76.69722 12752 ft 264 kts 288°
2026-05-04 23:35 24.85750 -76.71640 12505 ft 265 kts 288°
2026-05-04 23:35 24.86406 -76.73526 12261 ft 265 kts 288°
2026-05-04 23:35 24.87065 -76.75427 12015 ft 265 kts 288°
2026-05-04 23:35 24.87721 -76.77315 11770 ft 265 kts 288°
2026-05-04 23:36 24.88382 -76.79214 11523 ft 265 kts 288°
2026-05-04 23:36 24.89044 -76.81114 11238 ft 267 kts 289°
2026-05-04 23:36 24.89713 -76.83041 10930 ft 269 kts 289°
2026-05-04 23:36 24.90382 -76.84963 10612 ft 270 kts 289°
2026-05-04 23:37 24.91051 -76.86894 10294 ft 272 kts 289°
2026-05-04 23:37 24.91727 -76.88854 9972 ft 273 kts 289°
2026-05-04 23:37 24.92402 -76.90800 9653 ft 274 kts 289°
2026-05-04 23:37 24.93087 -76.92776 9329 ft 274 kts 289°
2026-05-04 23:38 24.93774 -76.94762 9003 ft 275 kts 289°
2026-05-04 23:38 24.94454 -76.96721 8694 ft 275 kts 289°
2026-05-04 23:38 24.95134 -76.98683 8396 ft 273 kts 289°
2026-05-04 23:38 24.95810 -77.00639 8023 ft 272 kts 289°
2026-05-04 23:39 24.96487 -77.02595 7647 ft 271 kts 289°
2026-05-04 23:39 24.97156 -77.04536 7299 ft 270 kts 289°
2026-05-04 23:39 24.97824 -77.06470 6935 ft 270 kts 289°
2026-05-04 23:39 24.98487 -77.08392 6601 ft 268 kts 289°
2026-05-04 23:40 24.99153 -77.10323 6256 ft 267 kts 289°
2026-05-04 23:40 24.99810 -77.12229 5883 ft 266 kts 289°
2026-05-04 23:40 25.00473 -77.14157 5502 ft 266 kts 290°
2026-05-04 23:40 25.01126 -77.16058 5126 ft 266 kts 290°
2026-05-04 23:41 25.01783 -77.17976 4748 ft 266 kts 290°
2026-05-04 23:41 25.02439 -77.19884 4373 ft 267 kts 290°
2026-05-04 23:41 25.03093 -77.21781 4001 ft 267 kts 290°
2026-05-04 23:41 25.03751 -77.23695 3634 ft 268 kts 290°
2026-05-04 23:42 25.04413 -77.25623 3332 ft 265 kts 290°
2026-05-04 23:42 25.05064 -77.27527 3011 ft 264 kts 291°
2026-05-04 23:42 25.05709 -77.29404 2690 ft 264 kts 291°
2026-05-04 23:42 25.06365 -77.31312 2351 ft 264 kts 291°
2026-05-04 23:43 25.07013 -77.33202 2008 ft 264 kts 291°
2026-05-04 23:43 25.07667 -77.35103 1682 ft 265 kts 291°
2026-05-04 23:43 25.08317 -77.36999 1451 ft 261 kts 291°
2026-05-04 23:43 25.08959 -77.38874 1466 ft 259 kts 290°
2026-05-04 23:44 25.09597 -77.40746 1488 ft 261 kts 290°
2026-05-04 23:44 25.10167 -77.42416 1485 ft 262 kts 290°
2026-05-04 23:44 25.10823 -77.44333 1484 ft 264 kts 290°
2026-05-04 23:44 25.11499 -77.46307 1483 ft 265 kts 291°
2026-05-04 23:45 25.12134 -77.48154 1468 ft 242 kts 291°
2026-05-04 23:45 25.12691 -77.49788 1427 ft 211 kts 290°
2026-05-04 23:45 25.12732 -77.51248 1464 ft 176 kts 246°
2026-05-04 23:45 25.12106 -77.52255 1511 ft 141 kts 229°
2026-05-04 23:46 25.11428 -77.52869 1437 ft 122 kts 198°
2026-05-04 23:46 25.10582 -77.52887 1379 ft 125 kts 160°
2026-05-04 23:46 25.09786 -77.52496 1261 ft 122 kts 147°
2026-05-04 23:46 25.09147 -77.51955 1089 ft 111 kts 136°
2026-05-04 23:47 25.08579 -77.51348 959 ft 114 kts 134°
2026-05-04 23:47 25.08013 -77.50716 828 ft 117 kts 133°
2026-05-04 23:47 25.07432 -77.50069 680 ft 120 kts 134°
2026-05-04 23:47 25.06852 -77.49424 499 ft 116 kts 132°
2026-05-04 23:48 25.06291 -77.48785 320 ft 114 kts 133°
2026-05-04 23:48 25.05725 -77.48161 194 ft 114 kts 134°
2026-05-04 23:48 25.05178 -77.47557 49 ft 112 kts 133°
2026-05-04 23:48 25.04671 -77.46993 20 ft 89 kts 134°
2026-05-04 23:49 25.04314 -77.46596 20 ft 56 kts 134°
2026-05-04 23:49 25.04164 -77.46387 20 ft 26 kts 121°
2026-05-04 23:49 25.04107 -77.46226 20 ft 16 kts 93°
2026-05-04 23:49 25.04186 -77.46208 20 ft 19 kts 320°
2026-05-04 23:50 25.04297 -77.46325 20 ft 25 kts 315°
2026-05-04 23:50 25.04430 -77.46471 20 ft 27 kts 315°
2026-05-04 23:50 25.04562 -77.46618 20 ft 25 kts 315°
2026-05-04 23:50 25.04668 -77.46735 20 ft 16 kts 326°
2026-05-04 23:51 25.04750 -77.46697 20 ft 13 kts 42°
2026-05-04 23:51 25.04812 -77.46631 20 ft 11 kts 66°
2026-05-04 23:51 25.04796 -77.46568 20 ft 7 kts 160°
2026-05-04 23:51 25.04777 -77.46565 20 ft 0 kts 178°